| time (UTC) | temp C | wind direction | speed KPH | gust KPH | rain 1hr cm | rain 24hr cm | rain mn cm | humidity % | barometer mb |
| 20260508033907 | 5 | 114 | 0.0 | 0.0 | 0.00 | 0.03 | 0.03 | 83 | 1016.0 |
| 20260508033406 | 6 | 104 | 0.0 | 0.0 | 0.00 | 0.03 | 0.03 | 80 | 1015.9 |
| 20260508032903 | 6 | 119 | 0.0 | 0.0 | 0.00 | 0.03 | 0.03 | 82 | 1016.0 |
| 20260508032400 | 6 | 126 | 0.0 | 0.0 | 0.00 | 0.03 | 0.03 | 81 | 1015.9 |
| 20260508031857 | 6 | 116 | 0.0 | 0.0 | 0.00 | 0.03 | 0.03 | 82 | 1016.0 |
| 20260508031354 | 6 | 133 | 0.0 | 0.0 | 0.00 | 0.03 | 0.03 | 81 | 1015.7 |
| 20260508030850 | 6 | 133 | 0.0 | 0.0 | 0.00 | 0.03 | 0.03 | 81 | 1015.8 |
| 20260508030347 | 6 | 147 | 0.0 | 0.0 | 0.00 | 0.03 | 0.03 | 80 | 1015.6 |
| 20260508025844 | 6 | 149 | 0.0 | 0.0 | 0.00 | 0.03 | 0.03 | 80 | 1015.6 |
| 20260508025341 | 6 | 125 | 0.0 | 0.0 | 0.00 | 0.03 | 0.03 | 81 | 1015.6 |
| 20260508024838 | 6 | 342 | 1.6 | 3.2 | 0.00 | 0.03 | 0.03 | 80 | 1015.5 |
| 20260508024334 | 6 | 145 | 0.0 | 0.0 | 0.00 | 0.03 | 0.03 | 81 | 1015.4 |
| 20260508023831 | 6 | 359 | 0.0 | 0.0 | 0.00 | 0.03 | 0.03 | 81 | 1015.6 |
| 20260508023328 | 7 | 137 | 0.0 | 0.0 | 0.00 | 0.03 | 0.03 | 79 | 1015.5 |
| 20260508022825 | 7 | 139 | 0.0 | 0.0 | 0.00 | 0.03 | 0.03 | 80 | 1015.4 |
| 20260508022320 | 7 | 139 | 0.0 | 0.0 | 0.00 | 0.03 | 0.03 | 80 | 1015.3 |
| 20260508021818 | 7 | 139 | 0.0 | 0.0 | 0.00 | 0.03 | 0.03 | 79 | 1015.3 |
| 20260508021314 | 7 | 155 | 0.0 | 0.0 | 0.00 | 0.03 | 0.03 | 79 | 1015.1 |
| 20260508020810 | 7 | 140 | 0.0 | 0.0 | 0.00 | 0.03 | 0.03 | 79 | 1015.1 |
| 20260508020308 | 7 | 154 | 0.0 | 0.0 | 0.00 | 0.03 | 0.03 | 78 | 1015.0 |
| 20260508015804 | 7 | 131 | 0.0 | 0.0 | 0.00 | 0.03 | 0.03 | 78 | 1014.7 |
| 20260508015305 | 7 | 100 | 0.0 | 0.0 | 0.00 | 0.03 | 0.03 | 79 | 1014.9 |
| 20260508014759 | 7 | 23 | 0.0 | 0.0 | 0.00 | 0.03 | 0.03 | 76 | 1014.8 |
| 20260508014256 | 7 | 56 | 0.0 | 0.0 | 0.00 | 0.03 | 0.03 | 77 | 1014.6 |
| 20260508013751 | 8 | 18 | 0.0 | 0.0 | 0.00 | 0.03 | 0.03 | 76 | 1014.7 |
| 20260508013248 | 8 | 119 | 0.0 | 0.0 | 0.00 | 0.03 | 0.03 | 76 | 1014.6 |
| 20260508012745 | 8 | 359 | 0.0 | 0.0 | 0.00 | 0.03 | 0.03 | 77 | 1014.6 |
| 20260508012242 | 8 | 1 | 0.0 | 0.0 | 0.00 | 0.03 | 0.03 | 73 | 1014.3 |
| 20260508011740 | 8 | 0 | 0.0 | 0.0 | 0.00 | 0.03 | 0.03 | 72 | 1014.4 |
| 20260508011237 | 8 | 359 | 0.0 | 0.0 | 0.00 | 0.03 | 0.03 | 68 | 1014.3 |
| 20260508010734 | 9 | 356 | 0.0 | 0.0 | 0.00 | 0.03 | 0.03 | 68 | 1014.3 |
| 20260508010232 | 8 | 357 | 0.0 | 0.0 | 0.00 | 0.03 | 0.03 | 66 | 1014.3 |
| 20260508005729 | 9 | 357 | 0.0 | 0.0 | 0.00 | 0.03 | 0.03 | 67 | 1014.3 |
| 20260508005226 | 9 | 357 | 0.0 | 0.0 | 0.00 | 0.03 | 0.03 | 68 | 1014.2 |
| 20260508004721 | 9 | 6 | 0.0 | 0.0 | 0.00 | 0.03 | 0.03 | 68 | 1014.0 |
| 20260508004218 | 9 | 9 | 0.0 | 0.0 | 0.00 | 0.03 | 0.03 | 66 | 1013.9 |
| 20260508003714 | 10 | 9 | 0.0 | 0.0 | 0.00 | 0.03 | 0.03 | 69 | 1014.0 |
| 20260508003212 | 10 | 5 | 0.0 | 0.0 | 0.00 | 0.03 | 0.03 | 69 | 1013.8 |
| 20260508002708 | 10 | 5 | 0.0 | 0.0 | 0.00 | 0.03 | 0.03 | 68 | 1013.9 |
| 20260508002206 | 10 | 287 | 0.0 | 0.0 | 0.00 | 0.03 | 0.03 | 67 | 1013.6 |
| 20260508001701 | 11 | 287 | 0.0 | 1.6 | 0.00 | 0.03 | 0.03 | 65 | 1013.5 |
| 20260508001157 | 11 | 210 | 0.0 | 0.0 | 0.00 | 0.03 | 0.03 | 60 | 1013.6 |
| 20260508000654 | 11 | 210 | 0.0 | 0.0 | 0.00 | 0.03 | 0.03 | 60 | 1013.5 |
| 20260508000151 | 11 | 191 | 0.0 | 0.0 | 0.00 | 0.03 | 0.03 | 61 | 1013.5 |
| 20260507235647 | 11 | 302 | 0.0 | 3.2 | 0.00 | 0.03 | 0.03 | 57 | 1013.5 |
| 20260507235145 | 12 | 323 | 3.2 | 6.4 | 0.00 | 0.03 | 0.03 | 59 | 1013.6 |
| 20260507234642 | 12 | 61 | 0.0 | 4.8 | 0.00 | 0.03 | 0.03 | 56 | 1013.4 |
| 20260507234138 | 12 | 154 | 0.0 | 1.6 | 0.00 | 0.03 | 0.03 | 54 | 1013.3 |
| 20260507233635 | 12 | 344 | 1.6 | 6.4 | 0.00 | 0.03 | 0.03 | 49 | 1013.4 |
| 20260507233134 | 12 | 230 | 1.6 | 1.6 | 0.00 | 0.03 | 0.03 | 56 | 1013.4 |
| 20260507232629 | 13 | 146 | 1.6 | 1.6 | 0.00 | 0.03 | 0.03 | 53 | 1013.2 |
| 20260507232127 | 13 | 238 | 1.6 | 4.8 | 0.00 | 0.03 | 0.03 | 47 | 1013.2 |
| 20260507231623 | 13 | 355 | 3.2 | 9.7 | 0.00 | 0.03 | 0.03 | 44 | 1013.3 |
| 20260507231121 | 14 | 28 | 0.0 | 4.8 | 0.00 | 0.03 | 0.03 | 48 | 1013.2 |
| 20260507230617 | 15 | 245 | 3.2 | 6.4 | 0.00 | 0.03 | 0.03 | 46 | 1013.1 |
| 20260507230114 | 14 | 328 | 6.4 | 12.9 | 0.00 | 0.03 | 0.03 | 43 | 1013.1 |
| 20260507225609 | 15 | 349 | 9.7 | 12.9 | 0.00 | 0.03 | 0.03 | 42 | 1013.1 |
| 20260507225106 | 14 | 347 | 0.0 | 4.8 | 0.00 | 0.03 | 0.03 | 47 | 1013.1 |
| 20260507224601 | 14 | 33 | 3.2 | 4.8 | 0.00 | 0.03 | 0.03 | 44 | 1012.8 |
| 20260507224058 | 15 | 349 | 4.8 | 11.3 | 0.00 | 0.03 | 0.03 | 44 | 1012.8 |
| 20260507223554 | 14 | 326 | 1.6 | 9.7 | 0.00 | 0.03 | 0.03 | 47 | 1012.8 |
| 20260507223051 | 14 | 352 | 1.6 | 6.4 | 0.00 | 0.03 | 0.03 | 46 | 1013.0 |
| 20260507222548 | 14 | 286 | 3.2 | 6.4 | 0.00 | 0.03 | 0.03 | 49 | 1013.1 |
| 20260507222044 | 14 | 348 | 8.0 | 11.3 | 0.00 | 0.03 | 0.03 | 48 | 1012.6 |
| 20260507221541 | 15 | 335 | 6.4 | 9.7 | 0.00 | 0.03 | 0.03 | 47 | 1012.7 |
| 20260507221038 | 15 | 307 | 6.4 | 14.5 | 0.00 | 0.03 | 0.03 | 47 | 1012.7 |
| 20260507220535 | 15 | 290 | 6.4 | 12.9 | 0.00 | 0.03 | 0.03 | 45 | 1012.5 |
| 20260507220032 | 15 | 285 | 6.4 | 12.9 | 0.00 | 0.03 | 0.03 | 48 | 1012.5 |
| 20260507215528 | 14 | 322 | 6.4 | 9.7 | 0.00 | 0.03 | 0.03 | 48 | 1012.4 |
| 20260507215026 | 14 | 302 | 0.0 | 4.8 | 0.00 | 0.03 | 0.03 | 55 | 1012.4 |
| 20260507214523 | 14 | 310 | 6.4 | 9.7 | 0.00 | 0.03 | 0.03 | 52 | 1012.5 |
| 20260507214019 | 15 | 341 | 6.4 | 11.3 | 0.00 | 0.03 | 0.03 | 47 | 1012.2 |
| 20260507213515 | 14 | 307 | 8.0 | 11.3 | 0.00 | 0.03 | 0.03 | 48 | 1012.4 |
| 20260507213012 | 15 | 330 | 6.4 | 9.7 | 0.00 | 0.03 | 0.03 | 46 | 1012.4 |
| 20260507212508 | 15 | 322 | 9.7 | 12.9 | 0.00 | 0.03 | 0.03 | 46 | 1012.3 |
| 20260507212005 | 15 | 332 | 8.0 | 12.9 | 0.00 | 0.03 | 0.03 | 46 | 1012.2 |
| 20260507211502 | 15 | 264 | 3.2 | 9.7 | 0.00 | 0.03 | 0.03 | 47 | 1012.2 |
| 20260507210958 | 15 | 303 | 4.8 | 9.7 | 0.00 | 0.03 | 0.03 | 47 | 1012.1 |
| 20260507210455 | 15 | 237 | 6.4 | 12.9 | 0.00 | 0.03 | 0.03 | 46 | 1011.9 |
| 20260507205952 | 15 | 318 | 3.2 | 9.7 | 0.00 | 0.03 | 0.03 | 45 | 1012.1 |
| 20260507205449 | 17 | 289 | 3.2 | 9.7 | 0.00 | 0.03 | 0.03 | 45 | 1012.3 |
| 20260507204945 | 16 | 310 | 6.4 | 11.3 | 0.00 | 0.03 | 0.03 | 42 | 1011.9 |
| 20260507204442 | 16 | 349 | 4.8 | 14.5 | 0.00 | 0.03 | 0.03 | 48 | 1012.0 |
| 20260507203939 | 16 | 344 | 4.8 | 9.7 | 0.00 | 0.03 | 0.03 | 47 | 1012.1 |
| 20260507203437 | 14 | 315 | 3.2 | 11.3 | 0.00 | 0.03 | 0.03 | 46 | 1012.1 |
| 20260507202933 | 15 | 337 | 3.2 | 6.4 | 0.00 | 0.03 | 0.03 | 46 | 1012.2 |
| 20260507202430 | 14 | 307 | 4.8 | 11.3 | 0.00 | 0.03 | 0.03 | 53 | 1012.1 |
| 20260507201926 | 15 | 341 | 3.2 | 9.7 | 0.00 | 0.03 | 0.03 | 45 | 1012.0 |
| 20260507201421 | 15 | 295 | 6.4 | 11.3 | 0.00 | 0.03 | 0.03 | 48 | 1012.1 |
| 20260507200919 | 15 | 298 | 1.6 | 6.4 | 0.00 | 0.03 | 0.03 | 49 | 1012.1 |
| 20260507200414 | 16 | 349 | 1.6 | 6.4 | 0.00 | 0.03 | 0.03 | 44 | 1012.3 |
| 20260507195910 | 16 | 317 | 12.9 | 12.9 | 0.00 | 0.03 | 0.03 | 43 | 1012.4 |
| 20260507195408 | 15 | 3 | 9.7 | 11.3 | 0.00 | 0.03 | 0.03 | 49 | 1012.4 |
| 20260507194905 | 15 | 332 | 4.8 | 14.5 | 0.00 | 0.03 | 0.03 | 49 | 1012.8 |
| 20260507194401 | 14 | 323 | 9.7 | 16.1 | 0.00 | 0.03 | 0.03 | 50 | 1012.7 |
| 20260507193857 | 15 | 333 | 3.2 | 11.3 | 0.00 | 0.03 | 0.03 | 50 | 1012.6 |
| 20260507193354 | 15 | 234 | 4.8 | 6.4 | 0.00 | 0.03 | 0.03 | 48 | 1012.7 |
| 20260507192851 | 16 | 303 | 6.4 | 11.3 | 0.00 | 0.03 | 0.03 | 49 | 1012.6 |
| 20260507192347 | 15 | 314 | 6.4 | 16.1 | 0.00 | 0.03 | 0.03 | 50 | 1012.6 |
| 20260507191843 | 15 | 315 | 6.4 | 12.9 | 0.00 | 0.03 | 0.03 | 51 | 1012.7 |
| 20260507191340 | 15 | 336 | 8.0 | 11.3 | 0.00 | 0.03 | 0.03 | 51 | 1012.6 |
| 20260507190837 | 15 | 321 | 4.8 | 14.5 | 0.00 | 0.03 | 0.03 | 53 | 1012.8 |
| 20260507190335 | 14 | 289 | 4.8 | 12.9 | 0.00 | 0.03 | 0.03 | 52 | 1012.7 |
| 20260507185834 | 15 | 332 | 6.4 | 11.3 | 0.00 | 0.03 | 0.03 | 53 | 1012.7 |
| 20260507185330 | 15 | 342 | 6.4 | 12.9 | 0.00 | 0.03 | 0.03 | 51 | 1012.5 |
| 20260507184827 | 15 | 324 | 6.4 | 14.5 | 0.00 | 0.03 | 0.03 | 50 | 1012.6 |
| 20260507184325 | 16 | 262 | 4.8 | 9.7 | 0.00 | 0.03 | 0.03 | 47 | 1012.8 |
| 20260507183822 | 16 | 322 | 6.4 | 14.5 | 0.00 | 0.03 | 0.03 | 50 | 1013.1 |
| 20260507183319 | 16 | 279 | 8.0 | 16.1 | 0.00 | 0.03 | 0.03 | 49 | 1013.0 |
| 20260507182817 | 16 | 333 | 8.0 | 12.9 | 0.00 | 0.03 | 0.03 | 50 | 1013.0 |
| 20260507182312 | 16 | 349 | 9.7 | 16.1 | 0.00 | 0.03 | 0.03 | 51 | 1013.1 |
| 20260507181809 | 16 | 270 | 12.9 | 20.9 | 0.00 | 0.03 | 0.03 | 49 | 1013.0 |
| 20260507181304 | 16 | 267 | 8.0 | 11.3 | 0.00 | 0.03 | 0.03 | 54 | 1013.0 |
| 20260507180801 | 15 | 265 | 1.6 | 11.3 | 0.00 | 0.03 | 0.03 | 52 | 1012.8 |
| 20260507180258 | 15 | 320 | 8.0 | 16.1 | 0.00 | 0.03 | 0.03 | 50 | 1013.1 |
| 20260507175754 | 16 | 316 | 14.5 | 16.1 | 0.00 | 0.03 | 0.03 | 52 | 1013.2 |
| 20260507175251 | 15 | 335 | 6.4 | 11.3 | 0.00 | 0.03 | 0.03 | 51 | 1012.7 |
| 20260507174748 | 15 | 330 | 6.4 | 11.3 | 0.00 | 0.03 | 0.03 | 55 | 1013.2 |
| 20260507174246 | 15 | 305 | 11.3 | 14.5 | 0.00 | 0.03 | 0.03 | 50 | 1013.2 |
| 20260507173744 | 14 | 320 | 1.6 | 9.7 | 0.00 | 0.03 | 0.03 | 56 | 1013.3 |
| 20260507173241 | 15 | 273 | 8.0 | 14.5 | 0.00 | 0.03 | 0.03 | 58 | 1013.3 |
| 20260507172737 | 15 | 321 | 6.4 | 11.3 | 0.00 | 0.03 | 0.03 | 58 | 1013.4 |
| 20260507172234 | 15 | 324 | 9.7 | 14.5 | 0.00 | 0.03 | 0.03 | 57 | 1013.4 |
| 20260507171734 | 15 | 293 | 6.4 | 9.7 | 0.00 | 0.03 | 0.03 | 53 | 1013.7 |
| 20260507171232 | 15 | 328 | 6.4 | 12.9 | 0.00 | 0.03 | 0.03 | 52 | 1013.4 |
| 20260507170729 | 15 | 348 | 4.8 | 11.3 | 0.00 | 0.03 | 0.03 | 54 | 1013.7 |
| 20260507170225 | 15 | 320 | 3.2 | 12.9 | 0.00 | 0.03 | 0.03 | 54 | 1013.7 |
| 20260507165721 | 15 | 316 | 8.0 | 14.5 | 0.00 | 0.03 | 0.03 | 53 | 1013.8 |
| 20260507165217 | 15 | 6 | 6.4 | 11.3 | 0.00 | 0.03 | 0.03 | 55 | 1013.7 |
| 20260507164713 | 14 | 6 | 3.2 | 9.7 | 0.00 | 0.03 | 0.03 | 55 | 1013.7 |
| 20260507164211 | 14 | 336 | 6.4 | 9.7 | 0.00 | 0.03 | 0.03 | 54 | 1013.9 |
| 20260507163708 | 14 | 290 | 9.7 | 16.1 | 0.00 | 0.03 | 0.03 | 58 | 1013.9 |
| 20260507163206 | 14 | 352 | 6.4 | 9.7 | 0.00 | 0.03 | 0.03 | 61 | 1014.1 |
| 20260507162701 | 14 | 342 | 4.8 | 9.7 | 0.00 | 0.03 | 0.03 | 58 | 1014.1 |
| 20260507162158 | 14 | 196 | 4.8 | 6.4 | 0.00 | 0.03 | 0.03 | 57 | 1014.1 |
| 20260507161654 | 14 | 159 | 0.0 | 4.8 | 0.00 | 0.03 | 0.03 | 59 | 1014.1 |
| 20260507161150 | 13 | 327 | 4.8 | 9.7 | 0.00 | 0.03 | 0.03 | 61 | 1014.0 |
| 20260507160647 | 12 | 303 | 3.2 | 4.8 | 0.00 | 0.03 | 0.03 | 58 | 1014.3 |
| 20260507160144 | 13 | 273 | 8.0 | 11.3 | 0.00 | 0.03 | 0.03 | 61 | 1014.3 |
| 20260507155639 | 13 | 321 | 6.4 | 9.7 | 0.00 | 0.03 | 0.03 | 64 | 1014.1 |
| 20260507155136 | 12 | 5 | 3.2 | 6.4 | 0.00 | 0.03 | 0.03 | 60 | 1014.3 |
| 20260507154633 | 12 | 348 | 4.8 | 14.5 | 0.00 | 0.03 | 0.03 | 58 | 1014.4 |
| 20260507154131 | 13 | 345 | 6.4 | 11.3 | 0.00 | 0.03 | 0.03 | 62 | 1014.3 |
| 20260507153626 | 13 | 322 | 4.8 | 9.7 | 0.00 | 0.03 | 0.03 | 58 | 1014.4 |
| 20260507153123 | 13 | 316 | 3.2 | 6.4 | 0.00 | 0.03 | 0.03 | 64 | 1014.3 |
| 20260507152620 | 13 | 342 | 8.0 | 12.9 | 0.00 | 0.03 | 0.03 | 62 | 1014.5 |
| 20260507152116 | 12 | 321 | 6.4 | 9.7 | 0.00 | 0.03 | 0.03 | 64 | 1014.3 |
| 20260507151612 | 12 | 320 | 9.7 | 11.3 | 0.00 | 0.03 | 0.03 | 60 | 1014.5 |
| 20260507151109 | 12 | 322 | 4.8 | 9.7 | 0.00 | 0.03 | 0.03 | 63 | 1014.4 |
| 20260507150606 | 12 | 16 | 0.0 | 6.4 | 0.00 | 0.03 | 0.03 | 63 | 1014.6 |
| 20260507145557 | 12 | 334 | 1.6 | 1.6 | 0.00 | 0.03 | 0.03 | 66 | 1014.6 |
| 20260507145056 | 12 | 282 | 1.6 | 4.8 | 0.00 | 0.03 | 0.03 | 66 | 1014.8 |
| 20260507144552 | 12 | 179 | 0.0 | 4.8 | 0.00 | 0.03 | 0.03 | 66 | 1015.1 |
| 20260507144050 | 11 | 314 | 0.0 | 0.0 | 0.00 | 0.03 | 0.03 | 67 | 1014.9 |
| 20260507143546 | 12 | 92 | 0.0 | 0.0 | 0.00 | 0.03 | 0.03 | 70 | 1014.8 |
| 20260507143044 | 11 | 219 | 0.0 | 0.0 | 0.00 | 0.03 | 0.03 | 70 | 1015.0 |
| 20260507142538 | 11 | 221 | 1.6 | 3.2 | 0.00 | 0.03 | 0.03 | 72 | 1015.4 |
| 20260507142036 | 11 | 117 | 0.0 | 0.0 | 0.00 | 0.03 | 0.03 | 72 | 1015.3 |
| 20260507141532 | 11 | 313 | 1.6 | 3.2 | 0.00 | 0.03 | 0.03 | 78 | 1015.4 |
| 20260507141029 | 10 | 346 | 0.0 | 0.0 | 0.00 | 0.03 | 0.03 | 77 | 1015.4 |
| 20260507140526 | 10 | 346 | 0.0 | 0.0 | 0.00 | 0.03 | 0.03 | 80 | 1015.5 |
| 20260507140023 | 10 | 347 | 0.0 | 0.0 | 0.00 | 0.03 | 0.03 | 79 | 1015.5 |
| 20260507135520 | 10 | 346 | 0.0 | 0.0 | 0.00 | 0.03 | 0.03 | 80 | 1015.6 |
| 20260507135017 | 10 | 346 | 0.0 | 0.0 | 0.00 | 0.03 | 0.03 | 80 | 1015.7 |
| 20260507134514 | 10 | 346 | 0.0 | 0.0 | 0.00 | 0.03 | 0.03 | 77 | 1015.8 |
| 20260507134009 | 10 | 346 | 0.0 | 0.0 | 0.00 | 0.03 | 0.03 | 81 | 1015.8 |
| 20260507133506 | 10 | 346 | 0.0 | 0.0 | 0.00 | 0.03 | 0.03 | 79 | 1015.9 |
| 20260507133004 | 10 | 346 | 0.0 | 0.0 | 0.00 | 0.03 | 0.03 | 82 | 1015.9 |
| 20260507132500 | 10 | 346 | 0.0 | 0.0 | 0.00 | 0.03 | 0.03 | 82 | 1015.7 |
| 20260507131956 | 10 | 346 | 0.0 | 0.0 | 0.00 | 0.03 | 0.03 | 83 | 1015.9 |
| 20260507131454 | 10 | 354 | 0.0 | 0.0 | 0.00 | 0.03 | 0.03 | 83 | 1015.9 |
| 20260507130950 | 10 | 127 | 0.0 | 0.0 | 0.00 | 0.03 | 0.03 | 82 | 1015.9 |
| 20260507130447 | 10 | 9 | 0.0 | 0.0 | 0.00 | 0.03 | 0.03 | 86 | 1016.0 |
| 20260507125946 | 9 | 8 | 0.0 | 0.0 | 0.00 | 0.03 | 0.03 | 84 | 1015.9 |
| 20260507125444 | 9 | 8 | 0.0 | 0.0 | 0.00 | 0.03 | 0.03 | 88 | 1015.9 |
| 20260507124941 | 9 | 8 | 0.0 | 0.0 | 0.00 | 0.03 | 0.03 | 89 | 1016.0 |
| 20260507124437 | 9 | 8 | 0.0 | 0.0 | 0.00 | 0.03 | 0.03 | 90 | 1015.9 |
| 20260507123936 | 9 | 8 | 0.0 | 0.0 | 0.00 | 0.03 | 0.03 | 89 | 1016.2 |
| 20260507123433 | 8 | 8 | 0.0 | 0.0 | 0.00 | 0.03 | 0.03 | 89 | 1016.1 |
| 20260507122929 | 8 | 8 | 0.0 | 0.0 | 0.00 | 0.03 | 0.03 | 90 | 1016.0 |
| 20260507122424 | 8 | 7 | 1.6 | 1.6 | 0.00 | 0.03 | 0.03 | 90 | 1015.8 |
| 20260507121921 | 8 | 7 | 0.0 | 0.0 | 0.00 | 0.03 | 0.03 | 91 | 1016.1 |
| 20260507121416 | 8 | 8 | 0.0 | 0.0 | 0.00 | 0.03 | 0.03 | 91 | 1015.9 |
| 20260507120913 | 8 | 7 | 0.0 | 0.0 | 0.00 | 0.03 | 0.03 | 92 | 1015.9 |
| 20260507120409 | 8 | 7 | 0.0 | 0.0 | 0.00 | 0.03 | 0.03 | 93 | 1016.1 |
| 20260507115906 | 8 | 7 | 0.0 | 0.0 | 0.00 | 0.03 | 0.03 | 94 | 1015.9 |
| 20260507115402 | 8 | 7 | 0.0 | 0.0 | 0.00 | 0.03 | 0.03 | 95 | 1015.9 |
| 20260507114857 | 8 | 7 | 0.0 | 0.0 | 0.00 | 0.03 | 0.03 | 95 | 1015.7 |
| 20260507114354 | 8 | 7 | 0.0 | 0.0 | 0.00 | 0.03 | 0.03 | 95 | 1015.6 |
| 20260507113852 | 8 | 7 | 0.0 | 0.0 | 0.00 | 0.03 | 0.03 | 95 | 1015.6 |
| 20260507113349 | 8 | 7 | 0.0 | 0.0 | 0.00 | 0.03 | 0.03 | 95 | 1015.5 |
| 20260507112846 | 8 | 7 | 0.0 | 0.0 | 0.00 | 0.03 | 0.03 | 95 | 1015.6 |
| 20260507112343 | 8 | 7 | 0.0 | 0.0 | 0.00 | 0.03 | 0.03 | 96 | 1015.5 |
| 20260507111841 | 8 | 7 | 0.0 | 0.0 | 0.00 | 0.03 | 0.03 | 96 | 1015.3 |
| 20260507111338 | 8 | 7 | 0.0 | 0.0 | 0.00 | 0.03 | 0.03 | 96 | 1015.0 |
| 20260507110833 | 8 | 7 | 0.0 | 0.0 | 0.00 | 0.03 | 0.03 | 96 | 1015.3 |
| 20260507110330 | 7 | 7 | 0.0 | 0.0 | 0.00 | 0.03 | 0.03 | 95 | 1015.1 |
| 20260507105827 | 7 | 7 | 0.0 | 0.0 | 0.00 | 0.03 | 0.03 | 95 | 1014.9 |
| 20260507105323 | 7 | 7 | 0.0 | 1.6 | 0.00 | 0.03 | 0.03 | 95 | 1014.9 |
| 20260507104820 | 8 | 62 | 0.0 | 0.0 | 0.00 | 0.03 | 0.03 | 95 | 1014.9 |
| 20260507104317 | 8 | 62 | 0.0 | 0.0 | 0.00 | 0.03 | 0.03 | 95 | 1014.9 |
| 20260507103813 | 8 | 62 | 0.0 | 0.0 | 0.00 | 0.03 | 0.03 | 96 | 1014.9 |
| 20260507103309 | 7 | 62 | 0.0 | 0.0 | 0.00 | 0.03 | 0.03 | 96 | 1015.0 |
| 20260507102806 | 8 | 62 | 0.0 | 0.0 | 0.00 | 0.03 | 0.03 | 96 | 1014.9 |
| 20260507102306 | 8 | 62 | 0.0 | 0.0 | 0.00 | 0.03 | 0.03 | 96 | 1014.9 |
| 20260507101759 | 7 | 354 | 0.0 | 0.0 | 0.00 | 0.03 | 0.03 | 96 | 1014.8 |
| 20260507101254 | 7 | 354 | 0.0 | 0.0 | 0.00 | 0.03 | 0.03 | 96 | 1014.6 |
| 20260507100751 | 7 | 354 | 0.0 | 0.0 | 0.00 | 0.03 | 0.03 | 96 | 1014.9 |
| 20260507100250 | 7 | 354 | 0.0 | 0.0 | 0.00 | 0.03 | 0.03 | 96 | 1014.8 |
| 20260507095747 | 7 | 354 | 0.0 | 0.0 | 0.00 | 0.03 | 0.03 | 95 | 1014.6 |
| 20260507095243 | 7 | 354 | 0.0 | 0.0 | 0.00 | 0.03 | 0.03 | 95 | 1014.5 |
| 20260507094741 | 7 | 354 | 0.0 | 0.0 | 0.00 | 0.03 | 0.03 | 95 | 1014.6 |
| 20260507094238 | 7 | 354 | 0.0 | 0.0 | 0.00 | 0.03 | 0.03 | 95 | 1014.5 |
| 20260507093734 | 7 | 354 | 0.0 | 0.0 | 0.00 | 0.03 | 0.03 | 95 | 1014.2 |
| 20260507093233 | 7 | 354 | 0.0 | 0.0 | 0.00 | 0.03 | 0.03 | 95 | 1014.6 |
| 20260507092730 | 7 | 354 | 0.0 | 0.0 | 0.00 | 0.03 | 0.03 | 95 | 1014.6 |
| 20260507092226 | 7 | 354 | 0.0 | 0.0 | 0.00 | 0.03 | 0.03 | 95 | 1014.6 |
| 20260507091723 | 7 | 354 | 0.0 | 0.0 | 0.00 | 0.03 | 0.03 | 95 | 1014.8 |
| 20260507091219 | 7 | 354 | 0.0 | 0.0 | 0.00 | 0.03 | 0.03 | 95 | 1014.8 |
| 20260507090719 | 8 | 354 | 0.0 | 0.0 | 0.00 | 0.03 | 0.03 | 95 | 1014.6 |
| 20260507090216 | 8 | 354 | 0.0 | 0.0 | 0.00 | 0.03 | 0.03 | 95 | 1014.8 |
| 20260507085713 | 7 | 354 | 0.0 | 0.0 | 0.00 | 0.03 | 0.03 | 94 | 1014.6 |
| 20260507085210 | 8 | 354 | 0.0 | 0.0 | 0.00 | 0.03 | 0.03 | 94 | 1014.5 |
| 20260507084707 | 8 | 354 | 0.0 | 0.0 | 0.00 | 0.03 | 0.03 | 94 | 1014.5 |
| 20260507084204 | 8 | 354 | 0.0 | 0.0 | 0.00 | 0.03 | 0.03 | 94 | 1014.4 |
| 20260507083701 | 8 | 305 | 0.0 | 3.2 | 0.00 | 0.03 | 0.03 | 94 | 1014.6 |
| 20260507083157 | 8 | 351 | 0.0 | 0.0 | 0.00 | 0.03 | 0.03 | 94 | 1014.8 |
| 20260507082653 | 8 | 328 | 0.0 | 1.6 | 0.00 | 0.03 | 0.03 | 95 | 1014.8 |
| 20260507082149 | 8 | 339 | 3.2 | 4.8 | 0.18 | 0.03 | 0.03 | 95 | 1014.6 |
| 20260507081646 | 8 | 90 | 0.0 | 0.0 | 0.18 | 0.03 | 0.03 | 96 | 1014.5 |
| 20260507081143 | 9 | 16 | 0.0 | 0.0 | 0.00 | 0.00 | 0.00 | 96 | 1014.7 |
| 20260507080639 | 8 | 16 | 0.0 | 0.0 | 0.00 | 0.00 | 0.00 | 95 | 1014.6 |
| 20260507080136 | 9 | 16 | 0.0 | 0.0 | 0.00 | 0.00 | 0.00 | 95 | 1014.4 |
| 20260507075637 | 8 | 16 | 0.0 | 0.0 | 0.00 | 0.00 | 0.00 | 95 | 1014.5 |
| 20260507075133 | 9 | 16 | 0.0 | 0.0 | 0.00 | 0.00 | 0.00 | 95 | 1014.3 |
| 20260507074630 | 8 | 16 | 0.0 | 0.0 | 0.00 | 0.00 | 0.00 | 95 | 1014.6 |
| 20260507074128 | 8 | 16 | 0.0 | 0.0 | 0.00 | 0.00 | 0.00 | 95 | 1014.5 |
| 20260507073624 | 8 | 16 | 0.0 | 0.0 | 0.00 | 0.00 | 0.00 | 95 | 1014.3 |
| 20260507073121 | 8 | 15 | 0.0 | 0.0 | 0.00 | 0.00 | 0.00 | 95 | 1014.4 |
| 20260507072619 | 8 | 37 | 0.0 | 0.0 | 0.00 | 0.00 | 0.00 | 95 | 1014.5 |
| 20260507072115 | 8 | 16 | 0.0 | 0.0 | 0.00 | 0.00 | 0.00 | 95 | 1014.5 |
| 20260507071613 | 8 | 16 | 0.0 | 0.0 | 0.00 | 0.00 | 0.00 | 95 | 1014.4 |
| 20260507071109 | 8 | 16 | 0.0 | 0.0 | 0.00 | 0.00 | 0.00 | 95 | 1014.5 |
| 20260507070607 | 8 | 16 | 0.0 | 0.0 | 0.00 | 0.00 | 0.00 | 95 | 1014.5 |
| 20260507070104 | 8 | 16 | 0.0 | 0.0 | 0.00 | 0.00 | 0.00 | 96 | 1014.5 |
| 20260507065600 | 9 | 289 | 0.0 | 0.0 | 0.00 | 0.00 | 0.00 | 96 | 1014.6 |
| 20260507065057 | 9 | 289 | 0.0 | 0.0 | 0.00 | 0.00 | 0.00 | 96 | 1014.4 |
| 20260507064555 | 9 | 289 | 0.0 | 0.0 | 0.00 | 0.00 | 0.00 | 95 | 1014.4 |
| 20260507064053 | 9 | 289 | 0.0 | 0.0 | 0.00 | 0.00 | 0.00 | 96 | 1014.5 |
| 20260507063550 | 9 | 289 | 0.0 | 0.0 | 0.00 | 0.00 | 0.00 | 96 | 1014.6 |
| 20260507063047 | 9 | 289 | 0.0 | 0.0 | 0.00 | 0.00 | 0.00 | 96 | 1014.4 |
| 20260507062543 | 9 | 289 | 0.0 | 0.0 | 0.00 | 0.00 | 0.00 | 96 | 1014.4 |
| 20260507062041 | 9 | 289 | 0.0 | 0.0 | 0.00 | 0.00 | 0.00 | 96 | 1014.7 |
| 20260507061539 | 9 | 289 | 0.0 | 0.0 | 0.00 | 0.00 | 0.00 | 96 | 1014.7 |
| 20260507061037 | 9 | 289 | 0.0 | 0.0 | 0.00 | 0.00 | 0.00 | 96 | 1014.8 |
| 20260507060534 | 9 | 289 | 0.0 | 0.0 | 0.00 | 0.00 | 0.00 | 96 | 1015.0 |
| 20260507060031 | 9 | 289 | 0.0 | 0.0 | 0.00 | 0.00 | 0.00 | 96 | 1015.0 |
| 20260507055525 | 9 | 289 | 0.0 | 0.0 | 0.00 | 0.00 | 0.00 | 96 | 1015.1 |
| 20260507055022 | 9 | 289 | 0.0 | 0.0 | 0.00 | 0.00 | 0.00 | 96 | 1015.1 |
| 20260507054518 | 9 | 289 | 0.0 | 0.0 | 0.00 | 0.00 | 0.00 | 96 | 1015.1 |
| 20260507054015 | 9 | 289 | 0.0 | 0.0 | 0.00 | 0.00 | 0.00 | 96 | 1015.0 |
| 20260507053513 | 9 | 289 | 0.0 | 0.0 | 0.00 | 0.00 | 0.00 | 96 | 1015.1 |
| 20260507053012 | 9 | 289 | 0.0 | 0.0 | 0.00 | 0.00 | 0.00 | 96 | 1015.4 |
| 20260507052509 | 9 | 289 | 0.0 | 0.0 | 0.00 | 0.00 | 0.00 | 96 | 1015.6 |
| 20260507052005 | 9 | 289 | 0.0 | 0.0 | 0.00 | 0.00 | 0.00 | 96 | 1015.1 |
| 20260507051503 | 9 | 289 | 0.0 | 0.0 | 0.00 | 0.00 | 0.00 | 96 | 1015.4 |
| 20260507050959 | 9 | 289 | 0.0 | 0.0 | 0.00 | 0.00 | 0.00 | 96 | 1015.5 |
| 20260507050456 | 9 | 289 | 0.0 | 0.0 | 0.00 | 0.00 | 0.00 | 96 | 1015.1 |
| 20260507045953 | 9 | 289 | 0.0 | 0.0 | 0.00 | 0.00 | 0.00 | 95 | 1015.1 |
| 20260507045449 | 9 | 289 | 0.0 | 0.0 | 0.00 | 0.00 | 0.00 | 95 | 1015.1 |
| 20260507044947 | 9 | 289 | 0.0 | 0.0 | 0.00 | 0.00 | 0.00 | 95 | 1015.1 |
| 20260507044443 | 9 | 289 | 0.0 | 0.0 | 0.00 | 0.00 | 0.00 | 95 | 1015.4 |
| 20260507043939 | 9 | 289 | 0.0 | 0.0 | 0.00 | 0.00 | 0.00 | 95 | 1015.1 |
| 20260507043436 | 9 | 289 | 0.0 | 0.0 | 0.00 | 0.00 | 0.00 | 95 | 1014.9 |
| 20260507042932 | 9 | 289 | 0.0 | 0.0 | 0.00 | 0.00 | 0.00 | 95 | 1015.1 |
| 20260507042429 | 9 | 289 | 0.0 | 0.0 | 0.00 | 0.00 | 0.00 | 95 | 1015.0 |
| 20260507041925 | 9 | 289 | 0.0 | 0.0 | 0.00 | 0.00 | 0.00 | 95 | 1014.9 |
| 20260507041422 | 9 | 333 | 0.0 | 0.0 | 0.00 | 0.00 | 0.00 | 95 | 1015.1 |
| 20260507040919 | 9 | 273 | 0.0 | 0.0 | 0.00 | 0.00 | 0.00 | 95 | 1015.1 |
| 20260507040415 | 9 | 273 | 0.0 | 0.0 | 0.00 | 0.00 | 0.00 | 94 | 1014.9 |
| 20260507035911 | 9 | 273 | 0.0 | 0.0 | 0.00 | 1.70 | 1.70 | 94 | 1014.9 |
| 20260507035407 | 9 | 273 | 0.0 | 0.0 | 0.00 | 1.70 | 1.70 | 94 | 1014.8 |
| 20260507034904 | 9 | 273 | 0.0 | 0.0 | 0.00 | 1.70 | 1.70 | 94 | 1015.1 |
| 20260507034401 | 9 | 273 | 0.0 | 0.0 | 0.00 | 1.70 | 1.70 | 94 | 1014.8 |